Regional Weather Roundup
Issued by NWS Charleston, WV

Home | Current Version | Previous Version | Graphics & Text | Print | Product List | Glossary On
Versions: 1 2 3 4 5 6 7 8 9 10 11 12 13 14 15 16 17 18 19 20 21 22 23 24 25 26 27 28 29 30 31 32 33 34 35 36 37 38 39 40 41 42 43 44 45 46 47 48 49 50
652
ASUS41 KRLX 090610
RWRRLX
West Virginia Regional Weather Roundup
National Weather Service Charleston WV
100 AM EST TUE FEB 09 2016

Note: "fair" indicates few or no clouds below 12,000 feet with no
significant weather and/or obstructions to visibility.

WVZ003-090700-
Northern Panhandle of West Virginia

CITY           SKY/WX    TMP DP  RH WIND       PRES   REMARKS
WHEELING       LGT SNOW  32  30  92 S3        29.57S FOG
$$

WVZ009-090700-
Northwest West Virginia

CITY           SKY/WX    TMP DP  RH WIND       PRES   REMARKS
PARKERSBURG    LGT SNOW  32  30  92 VRB7      29.62F FOG
$$

WVZ006-090700-
Western West Virginia

CITY           SKY/WX    TMP DP  RH WIND       PRES   REMARKS
HUNTINGTON     CLOUDY    31  23  72 W15G24    29.67S
$$

WVZ015-090700-
West Central West Virginia

CITY           SKY/WX    TMP DP  RH WIND       PRES   REMARKS
CHARLESTON     FLURRIES  34  28  79 SW10      29.63F
$$

WVZ022-031-090700-
North Central West Virginia

CITY           SKY/WX    TMP DP  RH WIND       PRES   REMARKS
CLARKSBURG     LGT SNOW  32  31  96 SW6       29.58F FOG
MORGANTOWN     CLOUDY    33  29  85 SW5       29.58F
$$

WVZ025-035-042-045-090700-
Southern West Virginia

CITY           SKY/WX    TMP DP  RH WIND       PRES   REMARKS
BECKLEY        CLOUDY    28  24  85 W8        29.58S
LOGAN          LGT SNOW  30  27  86 SW9       29.63S
BLUEFIELD      FLURRIES  26  22  84 NW12G17   29.57F
LEWISBURG      CLOUDY    32  28  83 CALM      29.57F
$$

WVZ047-090700-
Northern Mountains of West Virginia

CITY           SKY/WX    TMP DP  RH WIND       PRES   REMARKS
ELKINS         LGT SNOW  30  26  85 VRB5      29.56F FOG
$$

WVZ052-090700-
Eastern Panhandle of West Virginia

CITY           SKY/WX    TMP DP  RH WIND       PRES   REMARKS
MARTINSBURG    CLOUDY    35  33  92 S6        29.60F
PETERSBURG     MIX PCPN  34  32  94 CALM      29.59F
$$




USA.gov is the U.S. government's official web portal to all federal, state and local government web resources and services.